TimeEDT,TemperatureF,Dew PointF,Humidity,Sea Level PressureIn,VisibilityMPH,Wind Direction,Wind SpeedMPH,Gust SpeedMPH,PrecipitationIn,Events,Conditions,WindDirDegrees,DateUTC
12:54 AM,60.1,57.9,93,29.89,10.0,SW,3.5,-,N/A,,Clear,230,2013-08-04 04:54:00
1:54 AM,57.9,55.9,93,29.89,10.0,Calm,Calm,-,N/A,,Clear,0,2013-08-04 05:54:00
2:54 AM,61.0,53.1,75,29.88,10.0,NW,5.8,-,N/A,,Clear,310,2013-08-04 06:54:00
3:54 AM,55.9,53.1,90,29.88,10.0,SW,4.6,-,N/A,,Clear,220,2013-08-04 07:54:00
4:54 AM,55.9,53.1,90,29.88,10.0,SW,5.8,-,N/A,,Clear,230,2013-08-04 08:54:00
5:54 AM,55.9,54.0,93,29.88,10.0,SE,3.5,-,N/A,,Clear,140,2013-08-04 09:54:00
6:54 AM,59.0,55.0,87,29.89,10.0,Calm,Calm,-,N/A,,Clear,0,2013-08-04 10:54:00
7:54 AM,63.0,55.9,78,29.89,10.0,Calm,Calm,-,N/A,,Clear,0,2013-08-04 11:54:00
8:54 AM,68.0,57.9,70,29.89,10.0,WNW,11.5,-,N/A,,Unknown,290,2013-08-04 12:54:00
9:54 AM,71.1,57.9,63,29.90,10.0,NNW,11.5,16.1,N/A,,Clear,330,2013-08-04 13:54:00
10:54 AM,73.9,57.9,57,29.91,10.0,NW,10.4,-,0.01,,Mostly Cloudy,320,2013-08-04 14:54:00
11:54 AM,75.0,55.9,51,29.91,10.0,WNW,9.2,-,N/A,,Mostly Cloudy,300,2013-08-04 15:54:00
12:54 PM,75.0,57.0,53,29.89,10.0,West,6.9,-,N/A,,Mostly Cloudy,270,2013-08-04 16:54:00
1:54 PM,75.9,57.0,52,29.88,10.0,Calm,Calm,-,N/A,,Scattered Clouds,0,2013-08-04 17:54:00
2:54 PM,77.0,55.9,48,29.87,10.0,Variable,6.9,-,N/A,,Partly Cloudy,0,2013-08-04 18:54:00
3:54 PM,73.0,54.0,51,29.88,10.0,NNW,13.8,21.9,N/A,,Mostly Cloudy,340,2013-08-04 19:54:00
4:54 PM,75.9,55.9,50,29.88,10.0,NNW,6.9,-,0.00,,Partly Cloudy,330,2013-08-04 20:54:00
5:54 PM,75.9,55.0,48,29.88,10.0,NW,11.5,-,N/A,,Partly Cloudy,320,2013-08-04 21:54:00
6:54 PM,73.9,48.9,41,29.89,10.0,NNW,8.1,17.3,N/A,,Clear,330,2013-08-04 22:54:00
7:54 PM,70.0,48.0,46,29.92,10.0,North,8.1,-,N/A,,Clear,360,2013-08-04 23:54:00
8:54 PM,66.9,50.0,54,29.94,10.0,NNW,5.8,-,N/A,,Clear,330,2013-08-05 00:54:00
9:54 PM,66.0,48.0,52,29.96,10.0,NW,8.1,20.7,N/A,,Clear,310,2013-08-05 01:54:00
10:54 PM,64.9,48.0,54,29.97,10.0,NW,11.5,17.3,N/A,,Clear,320,2013-08-05 02:54:00
11:54 PM,61.0,48.9,64,29.98,10.0,Calm,Calm,-,N/A,,Clear,0,2013-08-05 03:54:00